Oldbury Fun Run 2013
Skip Navigation Links
16 June 2013
Page 1 of 8 (369 items)
[1]2345678
Pos
Bib No
Fav
Name
Time
Category
Cat Pos
Gender
Gen Pos
Pace
1387Andrew Savery00:20:05.8Adult1Male111.3 m/hr
2407Chris Mcmillan00:20:28.5Adult2Male211.1 m/hr
3375Richard Sage00:21:55.4Adult3Male310.4 m/hr
4442Phil Luckar00:22:13.8Adult4Male410.3 m/hr
5332Justyn Rowley00:22:45.6Adult5Male510.0 m/hr
648David Awde00:23:08.0Adult6Male6 9.9 m/hr
754Sam Taylor00:23:12.1Adult7Male7 9.8 m/hr
8454David Mcmillan00:23:18.0U181Male8 9.8 m/hr
9419Ross Baker00:23:26.5Adult8Male9 9.7 m/hr
10397Georgie Salmon00:23:57.0Adult1Female1 9.5 m/hr
1134Peter Barnes00:24:14.4U182Male10 9.4 m/hr
12351Dylan Evans00:24:24.3U183Male11 9.3 m/hr
13380Ash Tuck00:24:26.1Adult9Male12 9.3 m/hr
14424Daniel Parry00:24:26.3U184Male13 9.3 m/hr
15379Simeon De La Torre00:24:55.3Adult10Male14 9.1 m/hr
16266Millie Grey00:25:02.5Adult2Female2 9.1 m/hr
1790Jack Derrick00:25:05.8U151Male15 9.1 m/hr
18160Hannah Hobbs00:25:09.2U151Female3 9.1 m/hr
1949Rebecca Awde00:25:17.4Adult3Female4 9.0 m/hr
20289Mark Russell00:25:26.9Adult11Male16 9.0 m/hr
21363Liam Jones00:25:35.7Adult12Male17 8.9 m/hr
2258Steven Grant00:25:40.4Adult13Male18 8.9 m/hr
23448Richard Phillips00:25:41.7Adult14Male19 8.9 m/hr
24276Miguel Alvarez00:25:52.3Adult15Male20 8.8 m/hr
25286Harry Collin00:25:56.8Adult16Male21 8.8 m/hr
26354Alex Alliston00:26:05.5Adult17Male22 8.7 m/hr
27438Ben Warren00:26:09.2Adult18Male23 8.7 m/hr
28320Mike Priday00:26:09.7U185Male24 8.7 m/hr
29158Adam Vizard00:26:10.9Adult19Male25 8.7 m/hr
30307Matthew Flower00:26:14.8Adult20Male26 8.7 m/hr
3173Aimee Davies00:26:25.5Adult4Female5 8.6 m/hr
32269Lawrence Emm00:26:27.0Adult21Male27 8.6 m/hr
33416Ollie Fleming00:26:30.9Adult22Male28 8.6 m/hr
34441Nicholas Tymko00:26:31.9Adult23Male29 8.6 m/hr
35403Elliott Chard00:26:34.1U152Male30 8.6 m/hr
36385Alan Kent00:26:50.9Adult24Male31 8.5 m/hr
3718Jamie Ballantyne00:26:53.3Adult25Male32 8.5 m/hr
387Ben Hortop00:26:55.8Adult26Male33 8.5 m/hr
39399Tom Blake00:26:56.7Adult27Male34 8.5 m/hr
40435Richard Hughes00:26:59.2Adult28Male35 8.4 m/hr
4184Jacob Hodgson00:27:01.8Adult29Male36 8.4 m/hr
4214Martyn Pegler00:27:06.2Adult30Male37 8.4 m/hr
43445Ian Ballantyne00:27:06.5Adult31Male38 8.4 m/hr
44352Cavan Evans00:27:06.6U153Male39 8.4 m/hr
45114Joe Bolton00:27:12.5U186Male40 8.4 m/hr
4698Moray Sloan00:27:15.6Adult5Female6 8.4 m/hr
471Dayton Little00:27:16.7Adult32Male41 8.4 m/hr
48417Callum Plummer00:27:33.8U187Male42 8.3 m/hr
49390Simon Carpenter00:27:34.6Adult33Male43 8.3 m/hr
50272Jacques Davies-Cren00:27:34.7U188Male44 8.3 m/hr
Page 1 of 8 (369 items)
[1]2345678

HyperLink Copyright (c) G Vincent, 2017